User: anonymous   Login
Location: Albany
(35.0000°S, 118.0000°E)
Time: 12:43:10
(UTC-05:00)
Language:

Cosmos 1758 Rocket - Orbit

View from above orbital plane
View from above orbital plane
View from above satellite
View from above satellite

Ground track
Ground track

The orbit data is extracted from the following two-line orbital elements,

1 16792U 86046B   14355.07294932  .00001101  00000-0  13276-3 0  6580
2 16792 082.4832 337.6498 0025339 049.1993 018.0821 14.82749155540141
Epoch (UTC): 21 December 2014 01:45:02
Eccentricity: 0.0025339
inclination: 82.4832°
perigee height: 603 km
apogee height: 638 km
right ascension of ascending node: 337.6498°
argument of perigee: 49.1993°
revolutions per day: 14.82749155
mean anomaly at epoch: 18.0821°
orbit number at epoch: 54014

The dashed part of the orbit path shows where the satellite is in the earth's shadow,  

DLR